Location: Newark
(36.9100°N, 76.7100°W)
Time: 01:42:54
(UTC+00:00)

OTV 5 (USA 277) - Pass Details

Date: 22 October 2019
Orbit: 310 x 324 km, 54.5° (Epoch: 17 October)

Event Time Altitude Azimuth Distance (km) Brightness Sun altitude
Exits shadow 10:07:29 28° 213° (SSW) 633 ? -15.3°
Drops below altitude 10° 10:09:33 10° 167° (SSE) 1,221 ? -14.9°
Sets 10:11:37 0° 155° (SSE) 2,045 ? -14.5°
